| time (UTC) | temp F | wind direction | speed MPH | gust MPH | rain 1hr in | rain 24hr in | rain mn in | humidity % | barometer mb |
| 20260831094543 | 76 | 0 | 0.0 | 2.0 | 0.00 | 0.16 | 0.00 | 91 | 1015.7 |
| 20260831093101 | 76 | 350 | 0.0 | 2.0 | 0.00 | 0.16 | 0.00 | 91 | 1015.9 |
| 20260831091546 | 76 | 350 | 1.0 | 2.0 | 0.00 | 0.16 | 0.00 | 91 | 1015.8 |
| 20260831090036 | 76 | 350 | 1.0 | 2.0 | 0.00 | 0.16 | 0.00 | 91 | 1015.7 |
| 20260831084627 | 76 | 350 | 0.0 | 2.0 | 0.00 | 0.16 | 0.00 | 90 | 1015.8 |
| 20260831083046 | 76 | 350 | 0.0 | 2.0 | 0.00 | 0.16 | 0.00 | 90 | 1015.9 |
| 20260831081539 | 76 | 350 | 1.0 | 2.0 | 0.00 | 0.16 | 0.00 | 90 | 1016.0 |
| 20260831080050 | 76 | 0 | 0.0 | 0.0 | 0.00 | 0.16 | 0.00 | 90 | 1016.1 |
| 20260831074547 | 77 | 0 | 0.0 | 2.0 | 0.00 | 0.16 | 0.00 | 90 | 1016.1 |
| 20260831073042 | 77 | 318 | 0.0 | 2.0 | 0.00 | 0.16 | 0.00 | 90 | 1016.3 |
| 20260831071545 | 77 | 246 | 0.0 | 2.0 | 0.00 | 0.16 | 0.00 | 90 | 1016.3 |
| 20260831070038 | 77 | 191 | 0.0 | 4.0 | 0.00 | 0.16 | 0.00 | 90 | 1016.6 |
| 20260831064545 | 77 | 334 | 0.0 | 2.0 | 0.00 | 0.16 | 0.00 | 90 | 1016.4 |
| 20260831063059 | 77 | 334 | 1.0 | 3.0 | 0.00 | 0.16 | 0.00 | 90 | 1016.7 |
| 20260831061537 | 77 | 268 | 1.0 | 4.0 | 0.00 | 0.16 | 0.00 | 90 | 1016.6 |
| 20260831060040 | 77 | 0 | 0.0 | 0.0 | 0.00 | 0.16 | 0.00 | 89 | 1016.9 |
| 20260831054536 | 77 | 0 | 0.0 | 0.0 | 0.00 | 0.16 | 0.00 | 89 | 1016.8 |
| 20260831053052 | 77 | 0 | 0.0 | 0.0 | 0.00 | 0.16 | 0.00 | 89 | 1016.8 |
| 20260831051540 | 77 | 0 | 0.0 | 0.0 | 0.00 | 0.16 | 0.00 | 89 | 1017.1 |
| 20260831050039 | 77 | 0 | 0.0 | 0.0 | 0.00 | 0.16 | 0.00 | 89 | 1017.2 |
| 20260831044539 | 77 | 0 | 0.0 | 0.0 | 0.00 | 0.16 | 0.00 | 89 | 1017.2 |
| 20260831043043 | 77 | 0 | 0.0 | 0.0 | 0.00 | 0.16 | 0.00 | 88 | 1017.3 |
| 20260831041543 | 77 | 0 | 0.0 | 0.0 | 0.00 | 0.16 | 0.00 | 88 | 1017.4 |
| 20260831040042 | 77 | 0 | 0.0 | 0.0 | 0.00 | 0.16 | 0.00 | 88 | 1017.4 |
| 20260831034539 | 77 | 0 | 0.0 | 0.0 | 0.00 | 0.16 | 0.16 | 88 | 1017.5 |
| 20260831033041 | 77 | 0 | 0.0 | 0.0 | 0.00 | 0.16 | 0.16 | 88 | 1017.5 |
| 20260831031534 | 77 | 0 | 0.0 | 0.0 | 0.00 | 0.16 | 0.16 | 88 | 1017.5 |
| 20260831030048 | 77 | 0 | 0.0 | 0.0 | 0.00 | 0.16 | 0.16 | 87 | 1017.7 |
| 20260831024546 | 77 | 0 | 0.0 | 0.0 | 0.00 | 0.17 | 0.16 | 87 | 1017.7 |
| 20260831023040 | 78 | 0 | 0.0 | 0.0 | 0.00 | 0.17 | 0.16 | 87 | 1017.6 |
| 20260831021536 | 78 | 0 | 0.0 | 1.0 | 0.00 | 0.17 | 0.16 | 86 | 1017.6 |
| 20260831020039 | 78 | 0 | 0.0 | 0.0 | 0.00 | 0.17 | 0.16 | 86 | 1017.7 |
| 20260831014540 | 78 | 0 | 0.0 | 0.0 | 0.00 | 0.17 | 0.16 | 86 | 1017.3 |
| 20260831013035 | 79 | 0 | 0.0 | 0.0 | 0.00 | 0.17 | 0.16 | 85 | 1017.3 |
| 20260831011542 | 79 | 0 | 0.0 | 0.0 | 0.00 | 0.17 | 0.16 | 85 | 1017.4 |
| 20260831010036 | 79 | 0 | 0.0 | 0.0 | 0.00 | 0.17 | 0.16 | 84 | 1017.4 |
| 20260831004542 | 80 | 0 | 0.0 | 0.0 | 0.00 | 0.17 | 0.16 | 84 | 1017.4 |
| 20260831003036 | 80 | 0 | 0.0 | 0.0 | 0.00 | 0.17 | 0.16 | 83 | 1017.4 |
| 20260831001540 | 81 | 0 | 0.0 | 0.0 | 0.00 | 0.17 | 0.16 | 82 | 1017.4 |
| 20260831000037 | 81 | 0 | 0.0 | 0.0 | 0.00 | 0.17 | 0.16 | 81 | 1017.3 |
| 20260830234543 | 81 | 0 | 0.0 | 2.0 | 0.00 | 0.17 | 0.16 | 81 | 1017.2 |
| 20260830233038 | 82 | 0 | 0.0 | 0.0 | 0.00 | 0.17 | 0.16 | 80 | 1017.1 |
| 20260830231537 | 82 | 11 | 0.0 | 2.0 | 0.00 | 0.17 | 0.16 | 80 | 1016.8 |
| 20260830230036 | 82 | 0 | 0.0 | 2.0 | 0.00 | 0.17 | 0.16 | 79 | 1017.0 |
| 20260830224539 | 82 | 0 | 1.0 | 3.0 | 0.00 | 1.00 | 0.16 | 79 | 1016.9 |
| 20260830223037 | 83 | 0 | 0.0 | 0.0 | 0.00 | 1.00 | 0.16 | 79 | 1016.9 |
| 20260830221537 | 83 | 0 | 0.0 | 2.0 | 0.00 | 1.00 | 0.16 | 79 | 1016.8 |
| 20260830220041 | 83 | 0 | 0.0 | 1.0 | 0.00 | 1.00 | 0.16 | 80 | 1016.5 |
| 20260830214535 | 83 | 122 | 0.0 | 2.0 | 0.00 | 1.00 | 0.16 | 80 | 1016.5 |
| 20260830213033 | 82 | 122 | 0.0 | 2.0 | 0.00 | 1.00 | 0.16 | 79 | 1016.4 |
| 20260830211548 | 82 | 91 | 1.0 | 3.0 | 0.00 | 1.00 | 0.16 | 80 | 1016.3 |
| 20260830210039 | 82 | 0 | 1.0 | 5.0 | 0.00 | 1.00 | 0.16 | 80 | 1016.4 |
| 20260830204537 | 82 | 100 | 1.0 | 3.0 | 0.00 | 1.00 | 0.16 | 81 | 1016.6 |
| 20260830203034 | 82 | 98 | 0.0 | 2.0 | 0.00 | 1.00 | 0.16 | 81 | 1016.7 |
| 20260830201540 | 82 | 0 | 0.0 | 1.0 | 0.00 | 1.00 | 0.16 | 82 | 1016.8 |
| 20260830200039 | 82 | 0 | 0.0 | 2.0 | 0.00 | 1.00 | 0.16 | 84 | 1017.0 |
| 20260830194535 | 81 | 0 | 0.0 | 0.0 | 0.00 | 1.00 | 0.16 | 85 | 1017.2 |
| 20260830193037 | 80 | 90 | 0.0 | 2.0 | 0.00 | 1.00 | 0.16 | 86 | 1017.3 |
| 20260830191541 | 81 | 0 | 0.0 | 2.0 | 0.00 | 1.00 | 0.16 | 87 | 1017.4 |
| 20260830190039 | 80 | 0 | 0.0 | 3.0 | 0.02 | 1.00 | 0.16 | 87 | 1017.7 |
| 20260830184536 | 80 | 0 | 0.0 | 2.0 | 0.16 | 1.00 | 0.16 | 86 | 1017.9 |
| 20260830183044 | 79 | 88 | 0.0 | 4.0 | 0.16 | 1.00 | 0.16 | 86 | 1017.9 |
| 20260830181539 | 79 | 137 | 1.0 | 5.0 | 0.16 | 1.00 | 0.16 | 84 | 1018.2 |
| 20260830180037 | 79 | 80 | 1.0 | 5.0 | 0.13 | 0.97 | 0.13 | 81 | 1018.2 |
| 20260830174536 | 81 | 221 | 3.0 | 11.0 | 0.00 | 0.84 | 0.00 | 81 | 1018.5 |
| 20260830173036 | 82 | 90 | 2.0 | 8.0 | 0.00 | 0.84 | 0.00 | 77 | 1018.5 |
| 20260830171541 | 84 | 111 | 3.0 | 11.0 | 0.00 | 0.84 | 0.00 | 73 | 1018.4 |
| 20260830170036 | 88 | 90 | 4.0 | 11.0 | 0.00 | 0.84 | 0.00 | 66 | 1018.5 |
| 20260830164545 | 90 | 101 | 2.0 | 6.0 | 0.00 | 0.84 | 0.00 | 67 | 1018.5 |
| 20260830163047 | 90 | 40 | 2.0 | 7.0 | 0.00 | 0.84 | 0.00 | 68 | 1018.4 |
| 20260830161535 | 90 | 0 | 1.0 | 6.0 | 0.00 | 0.84 | 0.00 | 67 | 1018.5 |
| 20260830160055 | 90 | 132 | 1.0 | 3.0 | 0.00 | 0.84 | 0.00 | 68 | 1018.3 |
| 20260830154535 | 89 | 137 | 1.0 | 7.0 | 0.00 | 0.84 | 0.00 | 66 | 1018.2 |
| 20260830153039 | 89 | 5 | 1.0 | 4.0 | 0.00 | 0.84 | 0.00 | 67 | 1018.3 |
| 20260830151539 | 88 | 59 | 1.0 | 3.0 | 0.00 | 0.84 | 0.00 | 69 | 1018.5 |
| 20260830150040 | 87 | 126 | 1.0 | 4.0 | 0.00 | 0.84 | 0.00 | 72 | 1018.6 |
| 20260830144538 | 85 | 83 | 1.0 | 3.0 | 0.00 | 0.84 | 0.00 | 79 | 1018.8 |
| 20260830143040 | 83 | 5 | 0.0 | 3.0 | 0.00 | 0.84 | 0.00 | 87 | 1018.7 |
| 20260830141536 | 82 | 0 | 0.0 | 2.0 | 0.00 | 0.84 | 0.00 | 89 | 1018.9 |
| 20260830140048 | 81 | 0 | 0.0 | 2.0 | 0.00 | 0.84 | 0.00 | 91 | 1019.0 |
| 20260830134550 | 80 | 0 | 2.0 | 5.0 | 0.00 | 0.84 | 0.00 | 92 | 1018.9 |
| 20260830133041 | 79 | 38 | 1.0 | 4.0 | 0.00 | 0.84 | 0.00 | 92 | 1018.9 |
| 20260830131543 | 78 | 28 | 1.0 | 3.0 | 0.00 | 0.84 | 0.00 | 92 | 1018.8 |
| 20260830130055 | 78 | 329 | 1.0 | 2.0 | 0.00 | 0.84 | 0.00 | 92 | 1018.8 |
| 20260830124542 | 77 | 0 | 0.0 | 0.0 | 0.00 | 0.84 | 0.00 | 92 | 1018.6 |
| 20260830123044 | 77 | 0 | 0.0 | 0.0 | 0.00 | 0.84 | 0.00 | 92 | 1018.3 |
| 20260830121549 | 76 | 349 | 1.0 | 2.0 | 0.00 | 0.84 | 0.00 | 92 | 1018.2 |
| 20260830120039 | 75 | 317 | 0.0 | 2.0 | 0.00 | 0.84 | 0.00 | 92 | 1018.1 |
| 20260830114534 | 75 | 0 | 0.0 | 2.0 | 0.00 | 0.85 | 0.00 | 92 | 1017.8 |
| 20260830113036 | 75 | 319 | 0.0 | 2.0 | 0.00 | 0.85 | 0.00 | 92 | 1017.7 |
| 20260830111543 | 75 | 0 | 0.0 | 0.0 | 0.00 | 0.85 | 0.00 | 92 | 1017.6 |
| 20260830110037 | 75 | 0 | 0.0 | 3.0 | 0.00 | 0.85 | 0.00 | 92 | 1017.2 |
| 20260830104534 | 75 | 316 | 1.0 | 2.0 | 0.00 | 0.85 | 0.00 | 92 | 1017.1 |
| 20260830103041 | 75 | 296 | 1.0 | 2.0 | 0.00 | 0.85 | 0.00 | 92 | 1016.8 |
| 20260830101534 | 75 | 296 | 1.0 | 2.0 | 0.00 | 0.85 | 0.00 | 92 | 1016.7 |
| 20260830100040 | 75 | 323 | 1.0 | 3.0 | 0.00 | 0.85 | 0.00 | 92 | 1016.6 |